Location: Kolin
(50.0330°N, 15.2000°E)
Time: 02:30:18
(UTC+01:00)

ISS - Pass Details

Date: 26 November 2019
Orbit: 411 x 421 km, 51.6° (Epoch: 12 December)

Event Time Altitude Azimuth Distance (km) Brightness Sun altitude
Rises 16:49:22 0° 212° (SSW) 2,342 1.1 -7.3°
Reaches altitude 10° 16:51:42 10° 197° (SSW) 1,486 -0.3 -7.6°
Maximum altitude 16:54:24 23° 143° (SE) 943 -2.1 -8.0°
Drops below altitude 10° 16:57:07 10° 89° (E) 1,498 -1.5 -8.4°
Enters shadow 16:57:09 10° 89° (E) 1,511 -1.5 -8.4°
